View from above orbital plane
|
View from above satellite
|
Ground track
|
The orbit data is extracted from the following two-line orbital elements,
1 21152U 91019A 21023.84809109 .00000028 00000-0 13511-4 0 9993
2 21152 82.9292 325.0393 0041902 163.8117 222.1238 13.74261386497790
Epoch (UTC): | 23 January 2021 20:21:15 |
Eccentricity: | 0.0041902 |
inclination: | 82.9292° |
perigee height: | 953 km |
apogee height: | 1015 km |
right ascension of ascending node: | 325.0393° |
argument of perigee: | 163.8117° |
revolutions per day: | 13.74261386 |
mean anomaly at epoch: | 222.1238° |
orbit number at epoch: | 49779 |
The dashed part of the orbit path shows where the satellite is in the earth's shadow,
|
|